EW9275 Weather Reports


time (UTC)temp
C
wind
direction
speed
KPH
gust
KPH
rain 1hr
cm
rain 24hr
cm
rain mn
cm
humidity
%
barometer
mb
20260503193017 24 270 1.6 4.8 0.00 0.00 0.00 54 1013.8
20260503190016 23 0.0 4.8 0.00 0.00 0.00 56 1014.1
20260503183016 23 0.0 3.2 0.00 0.00 0.00 60 1014.5
20260503180016 22 0.0 1.6 0.00 0.00 0.00 61 1014.7
20260503173017 20 0.0 1.6 0.00 0.00 0.00 66 1014.8
20260503053015 16 0.0 0.0 0.00 0.00 0.00 81 1015.0
20260503050036 16 0.0 0.0 0.00 0.00 0.00 77 1014.9
20260503043015 17 0.0 0.0 0.00 0.00 0.00 74 1014.6
20260503040015 18 0.0 0.0 0.00 0.00 0.00 70 1014.3
20260503033018 20 0.0 0.0 0.00 0.00 0.00 66 1013.8
20260503030018 21 0.0 0.0 0.00 0.00 0.00 63 1013.5
20260503023039 22 0.0 1.6 0.00 0.00 0.00 59 1013.4
20260503020037 23 0.0 3.2 0.00 0.00 0.00 54 1013.4
20260503013017 23 0.0 3.2 0.00 0.00 0.00 53 1013.5
20260503010017 24 0.0 4.8 0.00 0.00 0.00 53 1013.5
20260503003018 24 270 1.6 6.4 0.00 0.00 0.00 54 1013.8
20260503000038 24 293 1.6 4.8 0.00 0.00 0.00 55 1013.8
20260502233017 24 270 1.6 8.0 0.00 0.00 0.00 54 1014.2
20260502230017 23 270 1.6 4.8 0.00 0.00 0.00 55 1014.5
20260502223017 23 270 1.6 4.8 0.00 0.00 0.00 56 1014.9
20260502220038 22 270 1.6 4.8 0.00 0.00 0.00 58 1015.3
20260502213017 22 315 1.6 6.4 0.00 0.00 0.00 59 1015.5
20260502210017 21 270 1.6 6.4 0.00 0.00 0.00 60 1015.9
20260502203037 21 0.0 6.4 0.00 0.00 0.00 61 1016.1
20260502200017 20 270 1.6 4.8 0.00 0.00 0.00 64 1016.4